Starlink 11327

operational
NORAD ID: 61695 Int'l Des: 2024-195 Owner: SPXS Country: US Constellation: starlink
LEOCIRCULAR

Über Starlink 11327

Beschreibung wird geladen...

Live-Position

3D-Globus wird geladen...

Nächste Überflüge

Höhenverlauf

Altitude vs Time

uPlot chart will show altitude changes over time

Zweizeiliger Elementsatz

1 61695U 24195J 25350.52890221 -.00003537 00000-0 -24341-4 0 9990
2 61695 53.1600 76.1130 0001204 80.6664 279.4490 15.69715054 65974
Epoch: 16. Dez. 2025 • Age: 23 hours

Aktueller Status

Höhe 361.1 km
Geschwindigkeit 7.70 km/s
Subsatellitenpunkt 31.51°N, 164.62°W
Startdatum 30. Okt. 2024
Alter 1.1 years
Typ internet

Technische Details

Klassifizierung Payload
Masse 960.00 kg
Trockenmasse 910.00 kg
Gesamtmasse 960.00 kg
Länge 0.30 m
Durchmesser 4.10 m
Spannweite 29.00 m
Form Box + pan
Hersteller SPXS
Bus-Typ Starlink V2MD
Phasenstatus In Orbit
Besitzer/Staat SPXS/US

Große Konstellationen

Loading constellations...